This is the latest recevied weather packets stored in our database for station/object DJ2DS-13. If no packets are shown the sender has not sent any weather packets the latest 10 day(s).
| Time | Temp. | Humidity | Pressure | Rain* | Wind** | Luminosity | Snow |
|---|---|---|---|---|---|---|---|
| 1777661541 | 18.89° C | 49% | 1020.9 hPa | 0 mm | - | 9 W/m² | - |
| 1777661239 | 19.44° C | 48% | 1020.9 hPa | 0 mm | - | 11 W/m² | - |
| 1777660938 | 19.44° C | 48% | 1020.9 hPa | 0 mm | - | 12 W/m² | - |
| 1777660640 | 20° C | 46% | 1021 hPa | 0 mm | - | 14 W/m² | - |
| 1777660336 | 20.56° C | 44% | 1020.8 hPa | 0 mm | - | 18 W/m² | - |
| 1777660036 | 20.56° C | 43% | 1020.9 hPa | 0 mm | - | 23 W/m² | - |
| 1777659736 | 21.11° C | 42% | 1020.7 hPa | 0 mm | - | 30 W/m² | - |
| 1777659432 | 21.11° C | 41% | 1020.7 hPa | 0 mm | - | 39 W/m² | - |
| 1777659131 | 21.11° C | 41% | 1020.7 hPa | 0 mm | - | 46 W/m² | - |
| 1777658828 | 21.67° C | 41% | 1020.6 hPa | 0 mm | - | 56 W/m² | - |
| 1777658530 | 21.67° C | 44% | 1020.7 hPa | 0 mm | - | 65 W/m² | - |
| 1777658228 | 21.67° C | 41% | 1020.7 hPa | 0 mm | - | 76 W/m² | - |
| 1777657928 | 21.67° C | 42% | 1020.7 hPa | 0 mm | - | 86 W/m² | - |
| 1777657625 | 21.67° C | 41% | 1020.9 hPa | 0 mm | - | 99 W/m² | - |
| 1777657325 | 21.67° C | 40% | 1020.9 hPa | 0 mm | - | 111 W/m² | - |
| 1777657026 | 21.67° C | 40% | 1021 hPa | 0 mm | - | 123 W/m² | - |
| 1777656728 | 22.22° C | 39% | 1021 hPa | 0 mm | - | 137 W/m² | - |
| 1777656426 | 22.22° C | 37% | 1021 hPa | 0 mm | - | 149 W/m² | - |
| 1777656124 | 22.22° C | 38% | 1021 hPa | 0 mm | - | 162 W/m² | - |
| 1777655823 | 22.22° C | 37% | 1021 hPa | 0 mm | - | 176 W/m² | - |
| 1777655523 | 22.22° C | 36% | 1021 hPa | 0 mm | - | 190 W/m² | - |
| 1777655223 | 22.78° C | 36% | 1021 hPa | 0 mm | - | 206 W/m² | - |
| 1777654923 | 22.78° C | 35% | 1021.1 hPa | 0 mm | - | 220 W/m² | - |
| 1777654624 | 22.78° C | 35% | 1021.2 hPa | 0 mm | - | 234 W/m² | - |
| 1777654323 | 22.78° C | 35% | 1021.2 hPa | 0 mm | - | 246 W/m² | - |
* Rain latest hour (hover to see other rain measurements)
** Current wind speed in m/s (hover to see current wind gust speed)